• In Uzbekistan
  • List of Countries
  • For 7 days
  • Water Temperature
  • Satellite Maps
  • Weather Map
  • Weather Widgets
  • user-avatar
    Login

    Hourly Weather Odense

    Today, 19 November, Sunday

    Time Temperature Precipitation Wind Pressure Humidity
    00:00 +3°C° 0.1 mm 10 mps 749 mmHg 70%
    01:00 +3°C° 0.1 mm 10 mps 748 mmHg 69%
    02:00 +3°C° 0.1 mm 11 mps 748 mmHg 71%
    03:00 +4°C° 0.1 mm 11 mps 747 mmHg 72%
    04:00 +4°C° 0.1 mm 11 mps 747 mmHg 73%
    05:00 +4°C° 0.1 mm 11 mps 747 mmHg 73%
    06:00 +3°C° 0.1 mm 11 mps 747 mmHg 72%
    07:00 +3°C° 0.1 mm 11 mps 746 mmHg 71%
    08:00 +3°C° 0 mm 11 mps 747 mmHg 71%
    09:00 +2°C° 0 mm 10 mps 748 mmHg 71%
    10:00 +2°C° 0 mm 10 mps 749 mmHg 71%
    11:00 +2°C° 0 mm 11 mps 749 mmHg 67%
    12:00 +2°C° 0 mm 11 mps 750 mmHg 62%
    13:00 +3°C° 0 mm 11 mps 751 mmHg 58%
    14:00 +2°C° 0 mm 11 mps 751 mmHg 59%
    15:00 +2°C° 0 mm 10 mps 752 mmHg 60%
    16:00 +2°C° 0 mm 10 mps 752 mmHg 60%
    17:00 +1°C° 0 mm 9 mps 753 mmHg 62%
    18:00 +1°C° 0 mm 9 mps 754 mmHg 63%
    19:00 +1°C° 0 mm 8 mps 754 mmHg 64%
    20:00 0°C° 0 mm 7 mps 755 mmHg 66%
    21:00 +1°C° 0 mm 6 mps 755 mmHg 69%
    22:00 +1°C° 0 mm 5 mps 756 mmHg 71%
    23:00 +2°C° 0 mm 5 mps 756 mmHg 72%

    Tomorrow, 20 November, Monday

    Time Temperature Precipitation Wind Pressure Humidity
    00:00 +2°C° 0 mm 5 mps 756 mmHg 74%
    01:00 +2°C° 0 mm 5 mps 756 mmHg 75%
    02:00 +2°C° 0 mm 5 mps 757 mmHg 75%
    03:00 +2°C° 0 mm 6 mps 757 mmHg 75%
    04:00 +3°C° 0 mm 6 mps 757 mmHg 75%
    05:00 +3°C° 0 mm 6 mps 757 mmHg 75%
    06:00 +3°C° 0 mm 6 mps 757 mmHg 75%
    07:00 +3°C° 0 mm 6 mps 757 mmHg 75%
    08:00 +3°C° 0 mm 5 mps 757 mmHg 74%
    09:00 +3°C° 0 mm 5 mps 757 mmHg 73%
    10:00 +5°C° 0 mm 5 mps 757 mmHg 71%
    11:00 +5°C° 0 mm 4 mps 757 mmHg 72%
    12:00 +5°C° 0 mm 4 mps 756 mmHg 73%
    13:00 +5°C° 0 mm 3 mps 756 mmHg 73%
    14:00 +5°C° 0.2 mm 3 mps 755 mmHg 77%
    15:00 +5°C° 0.2 mm 3 mps 754 mmHg 81%
    16:00 +4°C° 0.2 mm 3 mps 754 mmHg 85%
    17:00 +4°C° 0.2 mm 3 mps 753 mmHg 85%
    18:00 +4°C° 0.2 mm 4 mps 753 mmHg 86%
    19:00 +4°C° 0.2 mm 4 mps 752 mmHg 86%
    20:00 +4°C° 0 mm 4 mps 753 mmHg 85%
    21:00 +4°C° 0 mm 4 mps 753 mmHg 85%
    22:00 +5°C° 0 mm 4 mps 753 mmHg 84%
    23:00 +4°C° 0 mm 3 mps 753 mmHg 84%

    Day after tomorrow, 21 November, Tuesday

    Time Temperature Precipitation Wind Pressure Humidity
    00:00 +4°C° 0 mm 3 mps 753 mmHg 84%
    01:00 +4°C° 0 mm 3 mps 754 mmHg 84%
    02:00 +4°C° 0 mm 3 mps 754 mmHg 85%
    03:00 +3°C° 0 mm 3 mps 754 mmHg 85%
    04:00 +4°C° 0 mm 2 mps 754 mmHg 85%
    05:00 +4°C° 0 mm 2 mps 755 mmHg 85%
    06:00 +4°C° 0 mm 2 mps 755 mmHg 85%
    07:00 +4°C° 0 mm 2 mps 755 mmHg 85%
    08:00 +4°C° 0 mm 2 mps 756 mmHg 84%
    09:00 +4°C° 0 mm 2 mps 756 mmHg 84%
    10:00 +4°C° 0 mm 2 mps 757 mmHg 83%
    11:00 +5°C° 0 mm 2 mps 757 mmHg 81%
    12:00 +5°C° 0 mm 2 mps 757 mmHg 78%
    13:00 +6°C° 0 mm 2 mps 757 mmHg 76%
    14:00 +5°C° 0 mm 2 mps 757 mmHg 78%
    15:00 +4°C° 0 mm 3 mps 757 mmHg 79%
    16:00 +4°C° 0 mm 3 mps 757 mmHg 81%
    17:00 +4°C° 0.1 mm 4 mps 757 mmHg 82%
    18:00 +4°C° 0.1 mm 4 mps 757 mmHg 82%
    19:00 +3°C° 0.1 mm 5 mps 756 mmHg 82%
    20:00 +3°C° 0.5 mm 6 mps 756 mmHg 83%
    21:00 +3°C° 0.5 mm 7 mps 755 mmHg 84%
    22:00 +2°C° 0.5 mm 8 mps 755 mmHg 85%
    23:00 +3°C° 0.2 mm 9 mps 754 mmHg 87%

    22 November, Wednesday

    Time Temperature Precipitation Wind Pressure Humidity
    00:00 +3°C° 0.2 mm 9 mps 753 mmHg 89%
    01:00 +3°C° 0.2 mm 10 mps 753 mmHg 90%
    02:00 +5°C° 0.1 mm 9 mps 752 mmHg 91%
    03:00 +6°C° 0.1 mm 9 mps 751 mmHg 93%
    04:00 +7°C° 0.1 mm 8 mps 750 mmHg 94%
    05:00 +9°C° 0.1 mm 8 mps 750 mmHg 94%
    06:00 +9°C° 0.1 mm 8 mps 749 mmHg 93%
    07:00 +9°C° 0.1 mm 8 mps 749 mmHg 93%
    08:00 +10°C° 0.1 mm 8 mps 749 mmHg 94%
    09:00 +10°C° 0.1 mm 8 mps 749 mmHg 94%
    10:00 +10°C° 0.1 mm 7 mps 749 mmHg 94%
    11:00 +10°C° 0.2 mm 8 mps 749 mmHg 93%
    12:00 +10°C° 0.2 mm 8 mps 749 mmHg 92%
    13:00 +10°C° 0.2 mm 8 mps 749 mmHg 91%
    14:00 +10°C° 0 mm 9 mps 750 mmHg 90%
    15:00 +10°C° 0 mm 9 mps 750 mmHg 88%
    16:00 +10°C° 0 mm 9 mps 750 mmHg 87%
    17:00 +10°C° 0 mm 9 mps 751 mmHg 88%
    18:00 +10°C° 0 mm 8 mps 751 mmHg 88%
    19:00 +10°C° 0 mm 8 mps 751 mmHg 89%
    20:00 +10°C° 0 mm 8 mps 751 mmHg 89%
    21:00 +10°C° 0 mm 8 mps 752 mmHg 89%
    22:00 +10°C° 0 mm 8 mps 752 mmHg 89%
    23:00 +9°C° 0 mm 8 mps 752 mmHg 88%

    23 November, Thursday

    Time Temperature Precipitation Wind Pressure Humidity
    00:00 +9°C° 0 mm 8 mps 752 mmHg 88%
    01:00 +8°C° 0 mm 7 mps 752 mmHg 88%
    02:00 +8°C° 0 mm 7 mps 752 mmHg 86%
    03:00 +8°C° 0 mm 7 mps 752 mmHg 85%
    04:00 +6°C° 0 mm 7 mps 752 mmHg 83%
    05:00 +6°C° 0 mm 7 mps 752 mmHg 81%
    06:00 +6°C° 0 mm 7 mps 752 mmHg 79%
    07:00 +6°C° 0 mm 7 mps 751 mmHg 76%
    08:00 +6°C° 0 mm 8 mps 751 mmHg 75%
    09:00 +6°C° 0 mm 9 mps 751 mmHg 74%
    10:00 +7°C° 0 mm 9 mps 751 mmHg 73%
    11:00 +7°C° 0 mm 9 mps 751 mmHg 73%
    12:00 +8°C° 0 mm 9 mps 751 mmHg 73%
    13:00 +10°C° 0 mm 9 mps 751 mmHg 74%
    14:00 +9°C° 0 mm 10 mps 751 mmHg 75%
    15:00 +9°C° 0 mm 10 mps 751 mmHg 76%
    16:00 +11°C° 0 mm 10 mps 751 mmHg 78%
    17:00 +11°C° 0 mm 10 mps 752 mmHg 80%
    18:00 +11°C° 0 mm 10 mps 752 mmHg 82%
    19:00 +11°C° 0 mm 10 mps 753 mmHg 84%
    20:00 +11°C° 0 mm 9 mps 753 mmHg 86%
    21:00 +10°C° 0 mm 9 mps 754 mmHg 87%
    22:00 +10°C° 0 mm 8 mps 754 mmHg 89%
    23:00 +10°C° 0 mm 8 mps 755 mmHg 89%

    24 November, Friday

    Time Temperature Precipitation Wind Pressure Humidity
    00:00 +11°C° 0 mm 8 mps 755 mmHg 90%
    01:00 +11°C° 0 mm 8 mps 755 mmHg 91%
    02:00 +11°C° 0 mm 8 mps 756 mmHg 90%
    03:00 +11°C° 0 mm 8 mps 756 mmHg 90%
    04:00 +11°C° 0 mm 8 mps 756 mmHg 90%
    05:00 +11°C° 0 mm 8 mps 756 mmHg 90%
    06:00 +10°C° 0 mm 8 mps 756 mmHg 89%
    07:00 +10°C° 0 mm 8 mps 756 mmHg 88%
    08:00 +10°C° 0 mm 8 mps 757 mmHg 87%
    09:00 +10°C° 0 mm 7 mps 757 mmHg 86%
    10:00 +10°C° 0 mm 7 mps 757 mmHg 85%
    11:00 +10°C° 0 mm 7 mps 757 mmHg 83%
    12:00 +11°C° 0 mm 7 mps 757 mmHg 81%
    13:00 +11°C° 0 mm 7 mps 757 mmHg 79%
    14:00 +11°C° 0 mm 7 mps 757 mmHg 80%
    15:00 +10°C° 0 mm 7 mps 757 mmHg 81%
    16:00 +10°C° 0 mm 7 mps 757 mmHg 82%
    17:00 +10°C° 0 mm 7 mps 757 mmHg 82%
    18:00 +10°C° 0 mm 7 mps 757 mmHg 82%
    19:00 +10°C° 0 mm 7 mps 757 mmHg 82%
    20:00 +10°C° 0 mm 7 mps 757 mmHg 82%
    21:00 +9°C° 0 mm 6 mps 757 mmHg 82%
    22:00 +9°C° 0 mm 6 mps 757 mmHg 82%
    23:00 +9°C° 0 mm 6 mps 757 mmHg 82%
    Show more